[[{"header":{"parameterUnit":"m.s-1","parameterCategory":1,"la1":30.2991,"la2":30.254,"lo1":-89.0895,"lo2":-89.0444,"dy":0.0017,"dx":0.0017,"nx":28,"ny":28,"refTime":"2025-05-27T09:00:00:Z","depth":0,"parameterNumber":2,"parameterNumberName":"U-component_of_WINDS"},"data":[0,0,0,0,0,0,0,0,0,0,0,0,0,0,0,0,0,0,0,0,0,0,0,0,0,0,0,0,0,0,0,0,0,0,0,0,0,0,0,0,0,0,0,0,0,0,0,0,0,0,0,0,0,0,0,0,0,0,4.0991,4.0992,0,4.106,4.106,4.1061,4.1011,4.1009,4.1007,4.1004,4.1071,4.1075,4.1078,0,0,0,0,0,0,0,0,0,0,0,0,0,4.0813,4.0817,4.0991,4.0992,4.0993,4.1059,4.106,4.1061,4.1011,4.1009,4.1006,4.1003,4.107,4.1074,4.1079,0,0,0,0,0,0,0,0,0,0,0,0,0,4.0887,4.0818,4.0991,4.0976,4.0976,4.1059,4.106,4.1061,4.1012,4.1009,4.1005,4.1002,4.1068,4.1074,4.1079,4.118,0,0,4.1097,4.1099,0,0,0,0,0,0,0,0,4.0883,4.0893,4.0978,4.0977,4.0977,4.1023,4.1022,4.1101,4.1013,4.0998,4.1004,4.1001,4.1058,4.1064,4.1084,4.1183,4.1186,4.1097,4.1101,4.1103,4.1105,0,0,0,0,0,0,0,4.0878,4.089,4.1018,4.0979,4.0978,4.0964,4.0971,4.1037,4.1045,4.0999,4.0996,4.1005,4.1057,4.1078,4.1085,4.1187,4.1097,4.1102,4.1106,4.1108,4.1369,4.1372,0,0,0,0,0,0,4.0874,4.0886,4.1016,4.102,4.0921,4.097,4.0978,4.1012,4.1044,4.1046,4.1007,4.1002,4.107,4.1078,4.1087,4.1204,4.1103,4.1108,4.1112,4.1365,4.137,4.1373,0,0,0,0,0,0,4.0871,4.0887,4.1013,4.0952,4.0967,4.0977,4.1015,4.1015,4.1036,4.1051,4.1052,4.1028,4.1068,4.1079,4.1157,4.1206,4.1111,4.1116,4.1361,4.1367,4.1372,4.1442,0,0,0,0,0,0,4.0866,4.0886,4.0925,4.0954,4.0971,4.1084,4.1018,4.1019,4.1047,4.1041,4.1071,4.1072,4.1066,4.1149,4.1162,4.1212,4.1121,4.1357,4.1364,4.137,4.1435,4.1449,4.146,0,0,0,0,0,4.086,4.0943,4.0928,4.0944,4.1021,4.1087,4.1096,4.1089,4.1051,4.109,4.1099,4.1071,4.1199,4.1157,4.1172,4.1224,4.1354,4.1362,4.1369,4.1429,4.1446,4.146,0,0,0,0,0,0,4.0919,4.0946,4.093,4.1025,4.1054,4.1078,4.1127,4.1107,4.1147,4.1139,4.1127,4.1134,4.1215,4.1228,4.1181,4.1322,4.127,4.1281,4.131,4.1326,4.1339,4.1333,4.1125,0,0,0,0,0,4.0944,4.0996,4.1016,4.1098,4.1113,4.1118,4.1146,4.1138,4.1167,4.1179,4.1193,4.1221,4.1267,4.1298,4.1341,4.1437,4.1441,4.148,4.1493,4.1503,4.1512,4.156,4.1577,4.1399,4.1399,4.1399,0,0,4.0994,4.1015,4.1049,4.111,4.1132,4.1184,4.1128,4.1187,4.1225,4.1187,4.1261,4.1272,4.1303,4.1389,4.1428,4.1402,4.1562,4.1513,4.1522,4.1525,4.157,4.1587,4.1602,4.1405,4.1404,4.1403,0,0,4.1112,4.1135,4.1203,4.1226,4.1259,4.1261,4.1278,4.1305,4.1311,4.1385,4.1357,4.1401,4.1482,4.1504,4.1526,4.165,4.1625,4.1664,4.173,4.1776,4.179,4.1803,4.1843,4.1858,4.1674,4.1674,4.1674,0,4.1169,4.1249,4.1241,4.1301,4.1327,4.1296,4.1363,4.1386,4.1431,4.1449,4.142,4.1519,4.1538,4.1626,4.1656,4.1677,4.1692,4.166,4.1789,4.1802,4.1813,4.1851,4.1867,4.1678,4.1678,4.1677,4.1677,0,4.1316,4.1371,4.1423,4.1467,4.15,4.1563,4.1563,4.1596,4.1585,4.1589,4.1663,4.1685,4.173,4.1751,4.1741,4.1838,4.1821,4.1791,4.1738,4.1834,4.187,4.1885,4.1685,4.1683,4.1682,4.1681,0,0,4.1473,4.1511,4.153,4.1548,4.1582,4.1624,4.1685,4.173,4.1757,4.179,4.1838,4.1907,4.1879,4.1903,4.1895,4.1936,4.2029,4.1901,4.1901,4.1921,4.2133,4.2152,4.217,4.2013,4.2016,4.2019,4.2129,0,4.1589,4.1697,4.169,4.179,4.1839,4.1809,4.1862,4.1887,4.1893,4.1934,4.194,4.1987,4.1948,4.1962,4.2002,4.2009,4.207,4.2001,4.2055,4.2057,4.2046,4.2189,4.2211,4.2314,4.2143,4.2146,4.2148,0,4.174,4.1777,4.1882,4.1905,4.1925,4.1973,4.2012,4.2053,4.208,4.2081,4.2108,4.2092,4.2151,4.2099,4.2178,4.2131,4.2153,4.2159,4.2163,4.2165,4.2106,4.2192,4.2347,4.2361,4.217,4.2168,4.2167,0,4.1839,4.1915,4.1987,4.2004,4.2035,4.2068,4.2082,4.2106,4.2133,4.2167,4.2183,4.2224,4.2245,4.2276,4.2271,4.2234,4.235,4.2298,4.235,4.235,4.2373,4.2371,4.2531,4.2393,4.2393,4.2393,4.2392,0,4.1968,4.2032,4.2031,4.2075,4.2145,4.2136,4.2205,4.2215,4.2237,4.228,4.2258,4.2298,4.229,4.233,4.2327,4.2391,4.2401,4.2402,4.2399,4.2402,4.2401,4.2414,4.2405,4.2397,4.2396,4.2395,4.2394,0,4.2089,4.2092,4.2167,4.219,4.2197,4.2247,4.2265,4.2305,4.2309,4.2364,4.2376,4.2381,4.2427,4.2425,4.2478,4.2475,4.2552,4.2543,4.2543,4.254,4.259,4.2584,4.276,4.2781,4.2634,4.2635,4.2636,0,4.217,4.2218,4.2246,4.2274,4.229,4.2335,4.2362,4.2355,4.2383,4.2416,4.2452,4.2496,4.253,4.2604,4.2611,4.265,4.264,4.2699,4.2645,4.2645,4.2636,4.2632,4.2635,4.2708,4.271,4.2711,4.2712,0,4.2311,4.231,4.235,4.239,4.2422,4.2453,4.2481,4.2505,4.2501,4.2534,4.258,4.2607,4.2659,4.2702,4.2739,4.2751,4.273,4.273,4.2743,4.2744,4.2741,4.2739,4.2568,4.2725,4.2724,4.2723,4.2722,4.2722,4.2412,4.2453,4.2478,4.2522,4.2543,4.2569,4.2607,4.2615,4.2654,4.2696,4.269,4.2741,4.2764,4.2812,4.2828,4.2866,4.2845,4.2865,4.2869,4.2873,4.2877,4.2737,4.2873,4.2873,4.2872,4.2872,4.2872,0,4.2549,4.2564,4.2605,4.2645,4.2679,4.2658,4.2687,4.2717,4.2762,4.2786,4.282,4.2872,4.2913,4.2924,4.2962,4.2991,4.2982,4.3001,4.2997,4.2999,4.2896,4.2879,4.3007,4.3007,4.3007,4.3007,4.3007,4.3007,4.2624,4.269,4.2691,4.2766,4.278,4.283,4.2848,4.2871,4.289,4.2949,4.2983,4.299,4.3008,4.3047,4.3082,4.3084,4.3098,4.312,4.3118,4.3021,4.3007,4.2994,4.2977,4.3124,4.3124,4.3217,4.3218,4.3218]},{"header":{"parameterUnit":"m.s-1","parameterCategory":1,"la1":30.2991,"la2":30.254,"lo1":-89.0895,"lo2":-89.0444,"dy":0.0017,"dx":0.0017,"nx":28,"ny":28,"refTime":"2025-05-27T09:00:00:Z","depth":0,"parameterNumber":3,"parameterNumberName":"V-component_of_WINDS"},"data":[0,0,0,0,0,0,0,0,0,0,0,0,0,0,0,0,0,0,0,0,0,0,0,0,0,0,0,0,0,0,0,0,0,0,0,0,0,0,0,0,0,0,0,0,0,0,0,0,0,0,0,0,0,0,0,0,0,0,4.5763,4.5765,0,4.5974,4.5976,4.5978,4.5977,4.5974,4.5972,4.5969,4.6183,4.6191,4.6199,0,0,0,0,0,0,0,0,0,0,0,0,0,4.5356,4.5364,4.5763,4.5766,4.5768,4.5973,4.5976,4.5979,4.5978,4.5974,4.5971,4.5968,4.618,4.619,4.62,0,0,0,0,0,0,0,0,0,0,0,0,0,4.5546,4.5366,4.5762,4.5792,4.5797,4.5973,4.5976,4.598,4.5978,4.5974,4.597,4.5966,4.6177,4.6189,4.6201,4.636,0,0,4.6239,4.6244,0,0,0,0,0,0,0,0,4.5536,4.5561,4.5785,4.5791,4.5796,4.5945,4.5911,4.6107,4.5979,4.5909,4.5969,4.5964,4.6107,4.6125,4.6173,4.637,4.6379,4.624,4.6247,4.6253,4.6256,0,0,0,0,0,0,0,4.5522,4.5552,4.5846,4.5788,4.5795,4.5794,4.5816,4.5948,4.6029,4.5915,4.5916,4.5941,4.6109,4.6161,4.6178,4.6383,4.624,4.6251,4.6258,4.6263,4.6719,4.6723,0,0,0,0,0,0,4.5503,4.5541,4.584,4.5853,4.5653,4.5805,4.583,4.5901,4.6027,4.6043,4.5944,4.594,4.6142,4.6164,4.6186,4.6379,4.6253,4.6264,4.6271,4.6714,4.672,4.6725,0,0,0,0,0,0,4.5495,4.553,4.5831,4.5697,4.5735,4.5816,4.5896,4.5908,4.596,4.6049,4.6063,4.5983,4.614,4.6168,4.6317,4.6387,4.627,4.6281,4.6709,4.6716,4.6722,4.6769,0,0,0,0,0,0,4.5483,4.5527,4.5589,4.5699,4.5743,4.596,4.5901,4.5915,4.5982,4.5978,4.6089,4.6104,4.6139,4.6298,4.6329,4.6402,4.6291,4.6703,4.6712,4.672,4.6761,4.6776,4.6789,0,0,0,0,0,4.5469,4.5594,4.5592,4.5628,4.5822,4.5964,4.5989,4.6027,4.5987,4.605,4.6107,4.61,4.6374,4.6313,4.6348,4.6426,4.6698,4.6709,4.672,4.6755,4.6773,4.6789,0,0,0,0,0,0,4.549,4.5609,4.5609,4.5773,4.5858,4.5963,4.6044,4.6046,4.6144,4.6136,4.6179,4.6204,4.6352,4.6403,4.6334,4.6585,4.6531,4.6549,4.6546,4.6565,4.6578,4.6563,4.6301,0,0,0,0,0,4.5514,4.562,4.5718,4.5853,4.5896,4.5962,4.6026,4.6048,4.6137,4.6173,4.6241,4.6328,4.6433,4.6502,4.6604,4.6769,4.6792,4.6839,4.6853,4.6864,4.6879,4.6968,4.699,4.6759,4.6759,4.6759,0,0,4.5565,4.5643,4.5707,4.586,4.5928,4.6036,4.5993,4.6109,4.6189,4.6191,4.6335,4.6387,4.6487,4.6644,4.6716,4.6691,4.6948,4.6877,4.6886,4.6895,4.6981,4.7003,4.7022,4.6767,4.6765,4.6764,0,0,4.5712,4.5782,4.5902,4.5972,4.6076,4.6119,4.6148,4.6253,4.6288,4.6433,4.6437,4.6531,4.6713,4.6783,4.6842,4.7014,4.7011,4.7046,4.7119,4.7206,4.7224,4.724,4.7301,4.7322,4.7061,4.7061,4.7061,0,4.5762,4.5925,4.5964,4.608,4.6146,4.6153,4.6274,4.634,4.6472,4.6517,4.6487,4.6714,4.6781,4.6954,4.6996,4.7044,4.7077,4.7034,4.7219,4.7235,4.7251,4.7309,4.7331,4.7064,4.7064,4.7063,4.7063,0,4.598,4.6093,4.6177,4.6305,4.6381,4.6499,4.6554,4.6626,4.6641,4.6687,4.6833,4.6914,4.7032,4.7075,4.7091,4.725,4.7231,4.721,4.7156,4.7276,4.7331,4.7353,4.7069,4.7068,4.7067,4.7066,0,0,4.6147,4.6294,4.6325,4.6382,4.6497,4.6585,4.6702,4.6818,4.6878,4.6968,4.7067,4.722,4.72,4.7268,4.7291,4.7367,4.7496,4.7337,4.7339,4.7363,4.7675,4.7689,4.7715,4.7495,4.7499,4.7503,4.7666,0,4.6306,4.6516,4.6554,4.6736,4.684,4.6847,4.6949,4.703,4.7076,4.717,4.7219,4.7326,4.7293,4.7334,4.7409,4.7465,4.7559,4.7453,4.7586,4.759,4.7561,4.7744,4.776,4.791,4.7688,4.7692,4.7694,0,4.652,4.6615,4.6809,4.6909,4.6953,4.7045,4.7153,4.7243,4.7334,4.7362,4.7436,4.7451,4.7571,4.7512,4.7678,4.7605,4.7661,4.7697,4.7703,4.7717,4.7649,4.7761,4.7959,4.7981,4.7729,4.7726,4.7723,0,4.6621,4.6798,4.6937,4.6986,4.7106,4.717,4.7222,4.731,4.7376,4.747,4.7514,4.7621,4.7679,4.776,4.7803,4.7756,4.7965,4.791,4.799,4.7989,4.8034,4.8031,4.8243,4.8071,4.8071,4.8071,4.807,0,4.6794,4.6911,4.6984,4.7069,4.72,4.7241,4.737,4.7421,4.7499,4.7593,4.7605,4.7693,4.7743,4.7838,4.7872,4.8003,4.803,4.8054,4.8062,4.8053,4.805,4.809,4.8081,4.8077,4.8075,4.8074,4.8073,0,4.6929,4.6983,4.7134,4.7235,4.7263,4.7355,4.7441,4.7523,4.7568,4.7686,4.7717,4.7787,4.7899,4.7949,4.8087,4.8109,4.8259,4.8259,4.8229,4.8231,4.8308,4.83,4.8554,4.8589,4.8394,4.8396,4.8398,0,4.7036,4.7127,4.7237,4.7301,4.7356,4.7459,4.7527,4.7571,4.7641,4.7751,4.7819,4.7931,4.8024,4.8202,4.8264,4.837,4.8372,4.8454,4.8388,4.8376,4.8372,4.8366,4.8375,4.8465,4.8467,4.8469,4.847,0,4.7219,4.7241,4.7339,4.7446,4.7526,4.7613,4.7697,4.7749,4.7805,4.7883,4.7998,4.8069,4.821,4.8321,4.843,4.8483,4.8486,4.849,4.8514,4.8506,4.8484,4.8496,4.826,4.8484,4.8483,4.8482,4.8481,4.8481,4.7343,4.7423,4.7513,4.7622,4.769,4.7768,4.785,4.7904,4.8001,4.812,4.8139,4.8261,4.8348,4.8495,4.8552,4.8647,4.8627,4.8662,4.8671,4.8679,4.8683,4.8469,4.8667,4.8667,4.8666,4.8666,4.8666,0,4.7526,4.7584,4.7683,4.7801,4.7885,4.7881,4.7974,4.8045,4.8152,4.8234,4.8324,4.8455,4.8563,4.8633,4.8741,4.8804,4.8808,4.883,4.8826,4.8838,4.8695,4.8663,4.8825,4.8825,4.8825,4.8825,4.8825,4.8825,4.7631,4.7766,4.7798,4.7967,4.8024,4.8144,4.8197,4.8269,4.8334,4.848,4.8569,4.8615,4.8692,4.8805,4.8903,4.892,4.8959,4.8983,4.9,4.8865,4.8848,4.8832,4.8802,4.8991,4.8992,4.9135,4.9136,4.9137]}]]